www.pogodaiklimat.ru

Погода и климат >> Архив погоды >> Россия >> Магаданская область >> Шелихова


ПОГОДА на Шелихова

  • Прогноз погоды на Шелихова
  • Монитор погоды на Шелихова

АРХИВ ПОГОДЫ на Шелихова

Время (UTC), дата Ветер
(напр.,м/с)
 
Видим.   Явления Облачность Т
(С)
Тd
(С)
f
(%)
Тe
(С)
Тes
(С)
Комфортность P
(гПа)
Po
(гПа)
Тmin
(С)
Tmax
(С)
R
(мм)
R24
(мм)
S
(см)
06 16.08 СВ 6 50 км 1/0
[Ci fib]
+15.1 +8.0 63 +14 +15 1020.5 1016.5
09 16.08 СВ 5 50 км ясно +15.6 +6.1 53 +15 +15 1020.4 1016.4 +15.6
12 16.08 С 7-10
{10}
50 км 1/1 1000 м
[Sc]
+15.5 +6.4 55 +14 +14 1020.3 1016.3
15 16.08 СВ 12-17
{17}
50 км ясно +14.9 +7.0 59 +12 +12 1021.2 1017.2
18 16.08 СВ 13-17
{19}
50 км 6/3 1000 м
[Sc Ci fib]
+13.3 +6.9 65 +10 +10 1021.5 1017.5
21 16.08 СВ 12-18
{19}
4000 м 8/0
[Ci fib]
+12.5 +5.8 64 +9 +9 1022.2 1018.1 +12.4
00 17.08 СВ 12-18
{20}
50 км 3/0
[Ci fib]
+12.4 +5.5 63 +9 +9 1022.5 1018.4 +12.4
03 17.08 СВ 11-15
{18}
50 км 8/1 1000 м
[Sc Ci fib]
+12.9 +6.7 66 +10 +10 1023.1 1019.1
06 17.08 СВ 12-15
{15}
50 км 9/9 1000 м
[Sc]
+14.0 +7.2 64 +11 +11 1023.1 1019.1
09 17.08 СВ 13-15
{19}
50 км 9/9 1000 м
[Sc]
+13.6 +7.9 68 +10 +10 1023.6 1019.6 +14.1
12 17.08 СВ 10-14
{18}
50 км 10/10 1000 м
[Sc]
+12.5 +8.4 76 +9 +9 1023.8 1019.7
15 17.08 СВ 11-15
{17}
50 км 10/10 1000 м
[Sc]
+13.7 +7.9 68 +11 +11 1023.3 1019.2
18 17.08 СВ 10-12
{15}
50 км 10/10 1000 м
[Sc]
+13.7 +8.3 70 +11 +11 1023.0 1019.0
21 17.08 СВ 9-12
{15}
50 км 9/9 1000 м
[Sc]
+12.7 +8.7 77 +10 +10 1023.8 1019.8 +12.1
00 18.08 СВ 8
{12}
50 км 9/9 1000 м
[Sc]
+13.5 +8.2 70 +11 +11 1023.4 1019.4
03 18.08 СВ 5 50 км 1/1 1000 м
[Sc Ci fib]
+13.5 +7.9 69 +12 +16 1023.0 1019.0
06 18.08 СВ 7 50 км 6/1 1000 м
[Sc Ac cast]
+14.4 +8.3 67 +12 +13 1022.6 1018.6
09 18.08 СВ 8-10
{10}
50 км 6/6 1000 м
[Sc]
+14.0 +9.2 73 +12 +12 1023.6 1019.6 +14.5
12 18.08 СВ 8-10
{11}
50 км 1/1 1000 м
[Sc]
+13.6 +10.0 79 +11 +11 1024.1 1020.1
15 18.08 СВ 9-10
{12}
50 км ясно +13.0 +9.7 80 +10 +10 1024.6 1020.5
18 18.08 СВ 5
{13}
50 км 9/9 1000 м
[Sc]
+13.0 +9.6 80 +11 +11 1025.5 1021.5
21 18.08 СВ 4 50 км 9/9 1000 м
[Sc]
+13.6 +9.3 75 +12 +12 1026.1 1022.1 +12.7
00 19.08 СВ 3 50 км 6/6 1000 м
[Sc]
+14.3 +10.3 77 +13 +16 1026.3 1022.3
03 19.08 СВ 6 50 км 3/3 1000 м
[Sc]
+14.5 +10.7 78 +13 +15 1025.6 1021.6
06 19.08 СВ 5 50 км 3/3 1000 м
[Sc]
+14.6 +10.3 75 +13 +14 1024.9 1020.9
09 19.08 С 3 50 км ясно +14.9 +9.8 72 +14 +14 1024.7 1020.7 +15.3
12 19.08 СЗ 2 50 км 3/3 1000 м
[Sc]
+11.8 +8.5 80 +11 +11 1024.6 1020.5
15 19.08 СЗ 4 50 км 9/9 1000 м
[Sc]
+13.1 +9.6 79 +11 +11 1024.1 1020.1
18 19.08 С 1 50 км 9/9 1000 м
[Sc]
+14.7 +10.3 75 +15 +15 1024.0 1020.0
21 19.08 СВ 5 50 км 9/9 1000 м
[Sc]
+14.4 +12.0 85 +13 +13 1024.2 1020.2 +11.2
00 20.08 СВ 2 50 км 9/9 1000 м
[Sc]
+15.5 +12.0 80 +15 +16 1023.9 1019.9
03 20.08 В 1 50 км 9/9 1000 м
[Sc]
+15.3 +12.0 81 +16 +17 1023.2 1019.2
06 20.08 СВ 1 50 км 3/3 1000 м
[Sc]
+16.0 +11.0 72 +17 +19 1022.0 1018.0
09 20.08 штиль 0 50 км ясно +14.5 +10.4 76 +14 +14 1021.7 1017.7 +16.4
12 20.08 З 4 50 км ясно +11.7 +9.1 84 +10 +10 1021.4 1017.3
15 20.08 З 4 50 км ясно +10.0 +8.4 90 +7 +7 1020.7 1016.6
18 20.08 З 2 50 км 3/3 1000 м
[Sc]
+10.9 +8.9 87 +10 +10 1020.7 1016.6
21 20.08 З 2 50 км 1/1 1000 м
[Sc]
+15.5 +11.8 79 +15 +18 1020.5 1016.5 +9.9
00 21.08 З 1 50 км ясно +17.5 +11.8 69 +19 +28 1019.8 1015.8
03 21.08 З 2 50 км 1/0
[Ci fib]
+17.3 +12.3 72 +18 +26 1018.3 1014.3
06 21.08 СЗ 1 50 км 1/0
[Ci fib]
+17.3 +10.7 65 +18 +22 1017.5 1013.5
09 21.08 СЗ 2 50 км 4/1 1000 м
[Sc Ci fib]
+15.9 +10.1 68 +16 +16 1016.8 1012.8 +19.4
12 21.08 ЮЗ 1 50 км 1/1 1000 м
[Sc]
+13.8 +10.4 80 +14 +14 1016.9 1012.9
15 21.08 З 3 50 км 3/1 1000 м
[Sc Ci fib]
+13.6 +9.7 77 +12 +12 1016.3 1012.2
18 21.08 З 2 50 км 4/0
[Ci fib]
+11.8 +9.2 84 +11 +11 1016.3 1012.3
21 21.08 Ю 1 50 км 4/0
[Ci fib]
+16.7 +11.6 72 +18 +20 1016.6 1012.6 +11.7
00 22.08 ЮЗ 6 50 км 4/0
[Ci fib]
+18.8 +10.9 60 +19 +22 1015.9 1011.9
03 22.08 ЮЗ 9-11
{11}
50 км 6/0
[Ci fib]
+17.8 +12.0 69 +17 +17 1015.5 1011.6
06 22.08 ЮЗ 8-10
{11}
50 км 8/0
[Ci fib]
+17.1 +11.9 71 +16 +16 1015.0 1011.1
09 22.08 ЮЗ 6
{10}
50 км 8/1 1000 м
[Sc Ci fib]
+14.9 +12.1 83 +13 +13 1015.2 1011.2 +18.9
12 22.08 штиль 0 50 км 4/1 1000 м
[Sc Ci fib]
+14.0 +12.0 88 +14 +14 1015.9 1011.9
15 22.08 ЮЗ 3 50 км 4/0
[Sc]
+13.3 +11.5 89 +12 +12 1016.3 1012.3
18 22.08 штиль 0 50 км 3/3 1000 м
[Sc Ci fib]
+12.4 +11.0 91 +12 +12 1016.9 1012.9
21 22.08 В 1 50 км 3/3 1000 м
[Sc]
+15.2 +12.3 83 +16 +18 1017.4 1013.4 +11.7
00 23.08 Ю 2 50 км 8/4 1000 м
[Sc Ci fib]
+16.1 +13.5 85 +16 +20 1017.8 1013.8
03 23.08 ЮЗ 7 50 км 9/3 1000 м
[Sc]
+16.3 +12.8 80 +15 +16 1017.6 1013.6

 

Местоположение метеостанции Шелихова (Магаданская область, Россия): широта 60.72 долгота 155.80 высота над уровнем моря 33 м.

В архиве по умолчанию представлена погода на Шелихова за последнюю неделю. Архивные данные за месяц целиком и за предыдущие месяцы, начиная с января 2011 года, Вы можете получить, выбрав интересующий диапазон дат из раскрывающегося списка и нажав кнопку "Ввод!".


*Определитесь, кто Вы:
робот инопланетянин человек

Внимание! Время в таблицах - всемирное. Для получения местного времени необходимо прибавить поправку, которая равна 11 ч.

Смотрите также архив погоды в соседних городах и на ближайших метеорологических станциях:

Погода в Брохово (Магаданская область, Россия) (148 км)
Погода в Талой (Магаданская область, Россия) (195 км)
Погода в Омсукчане (Магаданская область, Россия) (200 км)
Погода в Эвенске (Магаданская область, Россия) (225 км)
Погода на Мысе Братьев (Магаданская область, Россия) (228 км)
Погода в Среднекане (Магаданская область, Россия) (267 км)
Погода в Палатке (Магаданская область, Россия) (278 км)
Погода в Мадауне (Магаданская область, Россия) (278 км)
Погода в Оле (Магаданская область, Россия) (285 км)
Погода в Палане (Камчатский край, Россия) (292 км)

Пояснения к столбцам:

Ветер - указаны скорость ветра в м/с - средняя за 10 мин, порывы в срок и между сроками (в фигурных скобках) и направление, откуда дует ветер: С - северный, СВ - северо-восточный, В - восточный, ЮВ - юго-восточный, Ю - южный, ЮЗ - юго-западный, З - западный, СЗ - северо-западный.
Видимость - горизонтальная дальность видимости в метрах или километрах. При видимости от 1 до 10 км при отсутствии осадков обычно наблюдается дымка, при ухудшении видимости до 1 км и менее - туман. В сухую погоду видимость может ухудшаться дымом, пылью или мглою.
Явления - указаны атмосферные явления, наблюдавшиеся в срок или в последний час перед сроком; фигурными скобками обозначены явления, наблюдавшиеся между сроками (за 1-3 часа до срока); квадратными скобками обозначены град или гололедные отложения с указанием их диаметра в мм.
Облачность - указаны через наклонную черту общая и нижняя облачность в баллах и высота нижней границы облаков в метрах; квадратными скобками обозначены формы облаков: Ci - перистые, Cs - перисто-слоистые, Cc - перисто-кучевые, Ac - высококучевые, As - высокослоистые, Sc - слоисто-кучевые, Ns - слоисто-дождевые, Cu - кучевые, Cb - кучево-дождевые. Подробнее классификацию облаков см. в Атласе облаков (PDF).
T - Температура воздуха - температура, измеренная на высоте 2 м над землей.
Td - Температура точки росы - температура, при понижении до которой содержащийся в воздухе водяной пар достигнет насыщения.
f - Относительная влажность воздуха - влажноcть воздуха, измеренная на высоте 2 м над землей.
Te - Эффективная температура - температура, которую ощущает одетый по сезону человек в тени. Характеристика душности погоды. При расчете учитывается влияние влажности воздуха и скорости ветра на теплоощущения человека.
Tes - Эффективная температура на солнце - температура, которую ощущает человек, с поправкой на солнечный нагрев. Характеристика знойности погоды. Зависит от высоты солнца над горизонтом, облачности и скорости ветра. Ночью, в пасмурную погоду, а также при ветре 12 м/с и более поправка равна нулю.
P - Атмосферное давление - приведенное к уровню моря атмосферное давление.
Po - Атмосферное давление - измеренное на уровне метеостанции атмосферное давление.
Tmin - Минимальная температура - минимум температуры воздуха на высоте 2 м над землей.
Tmax - Максимальная температура - максимум температуры воздуха на высоте 2 м над землей.
R - Количество осадков - Количество выпавших осадков за период времени, мм. При наведении курсора мыши на число - период времени, за который выпало указанное количество осадков.
R24 - Количество осадков - Количество выпавших осадков за 24 часа, мм.
S - Снежный покров - Высота снежного покрова, см. При наведении курсора мыши на число - состояние снежного покрова и степень покрытия местности в баллах.